Time,TemperatureF,DewpointF,PressureIn,WindDirection,WindDirectionDegrees,WindSpeedMPH,WindSpeedGustMPH,Humidity,HourlyPrecipIn,Conditions,Clouds,dailyrainin,SoftwareType,DateUTC
2013-02-18 00:15:00,25.6,8.0,30.22,North,7,22.0,27.0,48,0.00,,,0.00,weatherlink.com 1.10,2013-02-18 05:15:00,
2013-02-18 00:29:00,25.4,9.0,30.23,WNW,292,7.0,23.0,49,0.00,,,0.00,weatherlink.com 1.10,2013-02-18 05:29:00,
2013-02-18 00:45:00,25.3,8.0,30.24,NW,314,14.0,23.0,48,0.00,,,0.00,weatherlink.com 1.10,2013-02-18 05:45:00,
2013-02-18 00:59:00,25.1,8.0,30.24,NW,314,17.0,21.0,48,0.00,,,0.00,weatherlink.com 1.10,2013-02-18 05:59:00,
2013-02-18 01:14:00,25.0,7.0,30.25,North,360,12.0,25.0,47,0.00,,,0.00,weatherlink.com 1.10,2013-02-18 06:14:00,
2013-02-18 01:29:00,24.9,7.0,30.25,NW,308,13.0,21.0,47,0.00,,,0.00,weatherlink.com 1.10,2013-02-18 06:29:00,
2013-02-18 01:45:00,24.7,8.0,30.25,NNW,335,10.0,18.0,50,0.00,,,0.00,weatherlink.com 1.10,2013-02-18 06:45:00,
2013-02-18 02:00:00,24.6,9.0,30.25,NW,312,6.0,18.0,51,0.00,,,0.00,weatherlink.com 1.10,2013-02-18 07:00:00,
2013-02-18 02:14:00,24.4,8.0,30.26,NW,312,11.0,22.0,49,0.00,,,0.00,weatherlink.com 1.10,2013-02-18 07:14:00,
2013-02-18 02:30:00,24.2,8.0,30.26,NNW,343,7.0,16.0,51,0.00,,,0.00,weatherlink.com 1.10,2013-02-18 07:30:00,
2013-02-18 02:45:00,24.0,8.0,30.26,NW,312,9.0,16.0,51,0.00,,,0.00,weatherlink.com 1.10,2013-02-18 07:45:00,
2013-02-18 03:00:00,23.8,7.0,30.27,NW,321,11.0,17.0,49,0.00,,,0.00,weatherlink.com 1.10,2013-02-18 08:00:00,
2013-02-18 03:15:00,23.6,7.0,30.28,NNW,340,7.0,13.0,50,0.00,,,0.00,weatherlink.com 1.10,2013-02-18 08:15:00,
2013-02-18 03:30:00,23.5,7.0,30.28,NW,304,3.0,16.0,50,0.00,,,0.00,weatherlink.com 1.10,2013-02-18 08:30:00,
2013-02-18 03:45:00,23.4,7.0,30.29,NW,319,6.0,14.0,49,0.00,,,0.00,weatherlink.com 1.10,2013-02-18 08:45:00,
2013-02-18 04:00:00,23.5,8.0,30.29,NNW,338,10.0,21.0,51,0.00,,,0.00,weatherlink.com 1.10,2013-02-18 09:00:00,
2013-02-18 04:15:00,23.3,7.0,30.29,NW,310,7.0,12.0,50,0.00,,,0.00,weatherlink.com 1.10,2013-02-18 09:15:00,
2013-02-18 04:30:00,22.9,7.0,30.30,WNW,297,4.0,9.0,50,0.00,,,0.00,weatherlink.com 1.10,2013-02-18 09:30:00,
2013-02-18 04:45:00,22.8,7.0,30.30,NW,309,8.0,13.0,50,0.00,,,0.00,weatherlink.com 1.10,2013-02-18 09:45:00,
2013-02-18 05:00:00,22.8,7.0,30.32,WNW,303,7.0,16.0,50,0.00,,,0.00,weatherlink.com 1.10,2013-02-18 10:00:00,
2013-02-18 05:15:00,22.9,7.0,30.33,NW,316,5.0,9.0,51,0.00,,,0.00,weatherlink.com 1.10,2013-02-18 10:15:00,
2013-02-18 05:30:00,22.5,7.0,30.33,NW,307,4.0,9.0,51,0.00,,,0.00,weatherlink.com 1.10,2013-02-18 10:30:00,
2013-02-18 06:00:00,22.2,7.0,30.35,WNW,301,4.0,10.0,53,0.00,,,0.00,weatherlink.com 1.10,2013-02-18 11:00:00,
2013-02-18 06:15:00,22.1,8.0,30.35,WNW,302,3.0,8.0,55,0.00,,,0.00,weatherlink.com 1.10,2013-02-18 11:15:00,
2013-02-18 06:30:00,21.8,8.0,30.36,WNW,303,3.0,5.0,55,0.00,,,0.00,weatherlink.com 1.10,2013-02-18 11:30:00,
2013-02-18 06:45:00,21.8,8.0,30.37,NNW,344,5.0,7.0,55,0.00,,,0.00,weatherlink.com 1.10,2013-02-18 11:45:00,
2013-02-18 07:00:00,22.1,8.0,30.37,WNW,297,4.0,8.0,55,0.00,,,0.00,weatherlink.com 1.10,2013-02-18 12:00:00,
2013-02-18 07:15:00,22.5,8.0,30.38,WNW,295,1.0,7.0,54,0.00,,,0.00,weatherlink.com 1.10,2013-02-18 12:15:00,
2013-02-18 07:30:00,22.9,8.0,30.39,West,280,4.0,9.0,54,0.00,,,0.00,weatherlink.com 1.10,2013-02-18 12:30:00,
2013-02-18 07:45:00,23.4,8.0,30.39,WNW,303,6.0,8.0,53,0.00,,,0.00,weatherlink.com 1.10,2013-02-18 12:45:00,
2013-02-18 08:01:00,23.8,9.0,30.40,NW,308,5.0,9.0,54,0.00,,,0.00,weatherlink.com 1.10,2013-02-18 13:01:00,
2013-02-18 08:16:00,24.2,9.0,30.39,WNW,288,8.0,11.0,53,0.00,,,0.00,weatherlink.com 1.10,2013-02-18 13:16:00,
2013-02-18 08:31:00,24.5,9.0,30.40,WNW,292,4.0,14.0,53,0.00,,,0.00,weatherlink.com 1.10,2013-02-18 13:31:00,
2013-02-18 08:46:00,25.0,9.0,30.40,NW,311,6.0,14.0,51,0.00,,,0.00,weatherlink.com 1.10,2013-02-18 13:46:00,
2013-02-18 09:01:00,25.3,9.0,30.41,NW,317,11.0,19.0,50,0.00,,,0.00,weatherlink.com 1.10,2013-02-18 14:01:00,
2013-02-18 09:16:00,25.7,9.0,30.41,North,357,10.0,18.0,49,0.00,,,0.00,weatherlink.com 1.10,2013-02-18 14:16:00,
2013-02-18 09:31:00,26.1,9.0,30.40,North,6,9.0,15.0,49,0.00,,,0.00,weatherlink.com 1.10,2013-02-18 14:31:00,
2013-02-18 09:46:00,26.6,9.0,30.40,NW,311,10.0,15.0,47,0.00,,,0.00,weatherlink.com 1.10,2013-02-18 14:46:00,
2013-02-18 10:01:00,27.0,9.0,30.41,NW,314,6.0,17.0,46,0.00,,,0.00,weatherlink.com 1.10,2013-02-18 15:01:00,
2013-02-18 10:16:00,27.6,9.0,30.41,WNW,301,9.0,13.0,45,0.00,,,0.00,weatherlink.com 1.10,2013-02-18 15:16:00,
2013-02-18 10:34:00,27.9,9.0,30.41,WNW,288,5.0,12.0,45,0.00,,,0.00,weatherlink.com 1.10,2013-02-18 15:34:00,
2013-02-18 10:46:00,28.5,8.0,30.40,NNW,337,7.0,11.0,43,0.00,,,0.00,weatherlink.com 1.10,2013-02-18 15:46:00,
2013-02-18 11:01:00,29.0,9.0,30.39,WNW,291,2.0,11.0,44,0.00,,,0.00,weatherlink.com 1.10,2013-02-18 16:01:00,
2013-02-18 11:16:00,29.4,10.0,30.39,NNE,12,5.0,10.0,44,0.00,,,0.00,weatherlink.com 1.10,2013-02-18 16:16:00,
2013-02-18 11:31:00,30.4,8.0,30.38,NW,314,8.0,12.0,39,0.00,,,0.00,weatherlink.com 1.10,2013-02-18 16:31:00,
2013-02-18 11:46:00,30.8,10.0,30.37,WNW,290,5.0,12.0,41,0.00,,,0.00,weatherlink.com 1.10,2013-02-18 16:46:00,
2013-02-18 12:02:00,31.7,10.0,30.37,NNE,27,4.0,10.0,40,0.00,,,0.00,weatherlink.com 1.10,2013-02-18 17:02:00,
2013-02-18 12:17:00,32.4,9.0,30.36,WNW,302,4.0,8.0,37,0.00,,,0.00,weatherlink.com 1.10,2013-02-18 17:17:00,
2013-02-18 12:31:00,33.0,9.0,30.35,West,274,3.0,12.0,36,0.00,,,0.00,weatherlink.com 1.10,2013-02-18 17:31:00,
2013-02-18 12:46:00,33.5,10.0,30.34,NW,313,5.0,12.0,38,0.00,,,0.00,weatherlink.com 1.10,2013-02-18 17:46:00,
2013-02-18 13:01:00,34.1,10.0,30.33,West,281,3.0,13.0,36,0.00,,,0.00,weatherlink.com 1.10,2013-02-18 18:01:00,
2013-02-18 13:16:00,34.5,9.0,30.33,NW,309,2.0,11.0,34,0.00,,,0.00,weatherlink.com 1.10,2013-02-18 18:16:00,
2013-02-18 13:31:00,35.3,8.0,30.32,West,269,7.0,14.0,32,0.00,,,0.00,weatherlink.com 1.10,2013-02-18 18:31:00,
2013-02-18 13:47:00,35.9,10.0,30.32,SW,229,6.0,9.0,34,0.00,,,0.00,weatherlink.com 1.10,2013-02-18 18:47:00,
2013-02-18 14:17:00,37.5,9.0,30.30,West,274,8.0,12.0,31,0.00,,,0.00,weatherlink.com 1.10,2013-02-18 19:17:00,
2013-02-18 14:32:00,37.7,9.0,30.30,WSW,252,6.0,12.0,30,0.00,,,0.00,weatherlink.com 1.10,2013-02-18 19:32:00,
2013-02-18 14:47:00,38.8,11.0,30.30,WSW,246,6.0,7.0,32,0.00,,,0.00,weatherlink.com 1.10,2013-02-18 19:47:00,
2013-02-18 15:02:00,39.8,10.0,30.29,West,273,4.0,9.0,29,0.00,,,0.00,weatherlink.com 1.10,2013-02-18 20:02:00,
2013-02-18 15:17:00,38.3,18.0,30.28,SSW,194,9.0,12.0,44,0.00,,,0.00,weatherlink.com 1.10,2013-02-18 20:17:00,
2013-02-18 15:32:00,37.7,19.0,30.29,SSE,167,7.0,12.0,48,0.00,,,0.00,weatherlink.com 1.10,2013-02-18 20:32:00,
2013-02-18 15:47:00,37.7,19.0,30.29,South,176,7.0,11.0,48,0.00,,,0.00,weatherlink.com 1.10,2013-02-18 20:47:00,
2013-02-18 16:02:00,37.4,21.0,30.28,South,188,8.0,11.0,51,0.00,,,0.00,weatherlink.com 1.10,2013-02-18 21:02:00,
2013-02-18 16:17:00,37.8,20.0,30.29,SSE,167,4.0,9.0,48,0.00,,,0.00,weatherlink.com 1.10,2013-02-18 21:17:00,
2013-02-18 16:32:00,37.9,22.0,30.28,SSW,205,4.0,9.0,53,0.00,,,0.00,weatherlink.com 1.10,2013-02-18 21:32:00,
2013-02-18 16:47:00,37.6,22.0,30.28,SW,224,6.0,10.0,53,0.00,,,0.00,weatherlink.com 1.10,2013-02-18 21:47:00,
2013-02-18 17:02:00,37.2,23.0,30.28,SW,217,4.0,9.0,56,0.00,,,0.00,weatherlink.com 1.10,2013-02-18 22:02:00,
2013-02-18 17:17:00,37.0,23.0,30.28,West,264,2.0,4.0,58,0.00,,,0.00,weatherlink.com 1.10,2013-02-18 22:17:00,
2013-02-18 17:32:00,36.5,25.0,30.28,SW,215,1.0,3.0,63,0.00,,,0.00,weatherlink.com 1.10,2013-02-18 22:32:00,
2013-02-18 17:47:00,35.8,25.0,30.28,SSW,195,0.0,1.0,65,0.00,,,0.00,weatherlink.com 1.10,2013-02-18 22:47:00,
2013-02-18 18:17:00,34.5,28.0,30.29,SSW,195,0.0,1.0,77,0.00,,,0.00,weatherlink.com 1.10,2013-02-18 23:17:00,
2013-02-18 18:32:00,33.7,26.0,30.29,SSW,195,0.0,0.0,74,0.00,,,0.00,weatherlink.com 1.10,2013-02-18 23:32:00,
2013-02-18 18:47:00,33.1,25.0,30.29,SSW,200,0.0,1.0,73,0.00,,,0.00,weatherlink.com 1.10,2013-02-18 23:47:00,
2013-02-18 19:02:00,32.6,24.0,30.29,WSW,245,0.0,1.0,71,0.00,,,0.00,weatherlink.com 1.10,2013-02-19 00:02:00,
2013-02-18 19:17:00,32.0,25.0,30.28,South,190,0.0,1.0,76,0.00,,,0.00,weatherlink.com 1.10,2013-02-19 00:17:00,
2013-02-18 19:32:00,31.6,25.0,30.28,SSW,203,1.0,4.0,76,0.00,,,0.00,weatherlink.com 1.10,2013-02-19 00:32:00,
2013-02-18 19:47:00,33.4,28.0,30.28,South,191,4.0,10.0,79,0.00,,,0.00,weatherlink.com 1.10,2013-02-19 00:47:00,
2013-02-18 20:02:00,35.3,29.0,30.27,SSW,201,7.0,12.0,78,0.00,,,0.00,weatherlink.com 1.10,2013-02-19 01:02:00,
2013-02-18 20:17:00,35.9,29.0,30.27,SSW,211,7.0,10.0,76,0.00,,,0.00,weatherlink.com 1.10,2013-02-19 01:17:00,
2013-02-18 20:32:00,36.0,29.0,30.26,SSW,198,7.0,9.0,75,0.00,,,0.00,weatherlink.com 1.10,2013-02-19 01:32:00,
2013-02-18 20:47:00,36.1,30.0,30.26,SW,215,3.0,10.0,79,0.00,,,0.00,weatherlink.com 1.10,2013-02-19 01:47:00,
2013-02-18 21:03:00,36.3,31.0,30.27,WSW,242,6.0,14.0,80,0.00,,,0.00,weatherlink.com 1.10,2013-02-19 02:03:00,
2013-02-18 21:17:00,36.4,31.0,30.26,SSW,208,6.0,8.0,80,0.00,,,0.00,weatherlink.com 1.10,2013-02-19 02:17:00,
2013-02-18 21:33:00,36.6,31.0,30.25,South,179,3.0,11.0,80,0.00,,,0.00,weatherlink.com 1.10,2013-02-19 02:33:00,
2013-02-18 21:47:00,36.6,31.0,30.25,South,179,4.0,11.0,79,0.00,,,0.00,weatherlink.com 1.10,2013-02-19 02:47:00,
2013-02-18 22:04:00,36.5,30.0,30.24,SSW,197,3.0,8.0,78,0.00,,,0.00,weatherlink.com 1.10,2013-02-19 03:04:00,
2013-02-18 22:17:00,36.7,28.0,30.23,SSW,212,4.0,11.0,72,0.00,,,0.00,weatherlink.com 1.10,2013-02-19 03:17:00,
2013-02-18 22:32:00,36.9,28.0,30.23,SW,227,5.0,11.0,69,0.00,,,0.00,weatherlink.com 1.10,2013-02-19 03:32:00,
2013-02-18 22:47:00,36.9,27.0,30.23,SW,215,4.0,7.0,67,0.00,,,0.00,weatherlink.com 1.10,2013-02-19 03:47:00,
2013-02-18 23:02:00,36.9,26.0,30.23,WSW,249,2.0,7.0,65,0.00,,,0.00,weatherlink.com 1.10,2013-02-19 04:02:00,
2013-02-18 23:18:00,36.8,26.0,30.22,SSW,194,1.0,6.0,65,0.00,,,0.00,weatherlink.com 1.10,2013-02-19 04:18:00,
2013-02-18 23:32:00,36.8,26.0,30.22,SSW,204,2.0,6.0,64,0.00,,,0.00,weatherlink.com 1.10,2013-02-19 04:32:00,
2013-02-18 23:47:00,36.7,26.0,30.22,SW,235,3.0,6.0,66,0.00,,,0.00,weatherlink.com 1.10,2013-02-19 04:47:00,